Voltar ao catálogo

HJ-1A

AtivoCiênciaSSO
NORAD 33320·PAYLOAD·🇨🇳 China

Lançado Sep 6, 2008 de Taiyuan Satellite Launch Center

Loading…

Próximas Passagens (próximas 24 horas)

TLE

AtualizadoSource: Space-Track

Época: Sep 14, 2026, 15:17 UTC

1 33320U 08041A   26257.63692100  .00000320  00000-0  44423-4 0  9999
2 33320  97.6779 240.0704 0018085 200.8350 159.2130 14.84157684971674

Acompanhe HJ-1A em tempo real com AllMySat

Download on the App Store